Weather reports worldwide

Advertisment
Fehmarn, Germany (10055): temperature & dewpoint: 12.01.2020 12:00:00 - 18.01.2020 12:00:00 (CET)Fehmarn, Germany (10055): temperature 5cm & temperature -5cm: 12.01.2020 12:00:00 - 18.01.2020 12:00:00 (CET)Fehmarn, Germany (10055): temperature -20cm & temperature -100cm: 12.01.2020 12:00:00 - 18.01.2020 12:00:00 (CET)Fehmarn, Germany (10055): wind speed & gusts: 12.01.2020 12:00:00 - 18.01.2020 12:00:00 (CET)Fehmarn, Germany (10055): wind direction: 12.01.2020 12:00:00 - 18.01.2020 12:00:00 (CET)Fehmarn, Germany (10055): reduced air pressure: 12.01.2020 12:00:00 - 18.01.2020 12:00:00 (CET)Fehmarn, Germany (10055): visibility: 12.01.2020 12:00:00 - 18.01.2020 12:00:00 (CET)Fehmarn, Germany (10055): sunshine duration: 12.01.2020 12:00:00 - 18.01.2020 12:00:00 (CET)Fehmarn, Germany (10055): precipitation: 12.01.2020 12:00:00 - 18.01.2020 12:00:00 (CET)
Date & Time tt [°C] td [°C] tt 5cm [°C] tt -5cm [°C] tt -20cm [°C] tt -100cm [°C] ff [km/h] ff [kn] fx [km/h] fx [kn] dd ppp [hPa] vv [km] sd [min] rr [mm]
18.01.2020 12:00:00 5,5 2,2 5,3 4,6 5,0 6,9 38 20 59 32 SW 1017,0 31 0 0,0
18.01.2020 11:00:00 5,4 1,9 5,4 4,3 5,1 6,9 44 24 63 34 WSW 1016,9 36 54 0,0
18.01.2020 10:00:00 5,3 2,2 5,0 3,5 5,1 6,9 33 18 54 29 SW 1016,5 36 13 0,0
18.01.2020 09:00:00 5,4 2,3 4,3 3,5 5,3 6,9 32 17 49 27 SW 1016,2 35 0 0,0
18.01.2020 08:00:00 5,6 2,3 4,2 3,6 5,4 6,9 35 19 50 27 SW 1015,8 41 0 0,0
18.01.2020 07:00:00 5,7 2,7 4,5 4,1 5,5 6,9 35 19 50 27 WSW 1014,9 44 0 0,0
18.01.2020 06:00:00 5,7 3,7 5,2 4,6 5,5 6,9 29 15 52 28 SW 1014,6 32 0 0,0
18.01.2020 05:00:00 5,9 3,7 5,2 4,8 5,5 6,9 41 22 58 32 WSW 1014,1 45 0 0,0
18.01.2020 04:00:00 6,5 3,3 5,8 4,8 5,6 6,9 37 20 57 31 WSW 1013,5 47 0 0,0
18.01.2020 03:00:00 6,9 3,7 5,5 4,8 5,7 6,9 33 18 46 25 WSW 1013,0 37 0 0,0
18.01.2020 02:00:00 7,0 4,8 5,4 5,1 5,7 6,9 27 14 40 22 WSW 1012,6 22 0 0,0
18.01.2020 01:00:00 7,1 6,0 6,1 5,6 5,7 6,9 18 10 31 17 SW 1012,1 13 0 0,0
18.01.2020 00:00:00 7,3 6,7 6,8 5,9 5,6 6,9 21 11 30 16 SW 1011,8 5 0 0,0
17.01.2020 23:00:00 7,5 6,5 6,8 5,8 5,6 6,9 18 10 27 15 SW 1011,7 6 0 0,0
17.01.2020 22:00:00 7,7 5,4 6,8 5,6 5,5 6,9 13 7 25 13 S 1011,6 23 0 0,0
17.01.2020 21:00:00 7,6 4,6 7,0 5,5 5,5 6,9 16 9 31 17 S 1011,8 28 0 0,0
17.01.2020 20:00:00 7,7 4,4 7,2 5,4 5,5 6,9 23 12 31 17 S 1011,9 29 0 0,0
17.01.2020 19:00:00 7,7 4,3 7,1 5,3 5,4 6,9 21 11 29 16 S 1012,1 31 0 0,0
17.01.2020 18:00:00 7,6 4,3 7,0 5,0 5,5 6,9 18 10 29 16 S 1012,5 34 0 0,0
17.01.2020 17:00:00 6,5 4,2 5,7 4,6 5,5 6,9 21 11 32 17 SSE 1012,4 27 0 0,0
17.01.2020 16:00:00 7,0 4,2 5,9 5,1 5,5 6,9 21 11 31 17 SSE 1012,7 32 45 0,0
17.01.2020 15:00:00 7,7 4,4 6,9 5,6 5,4 6,9 21 11 37 20 SSE 1012,8 30 60 0,0
17.01.2020 14:00:00 7,9 4,2 7,7 6,2 5,2 6,9 24 13 40 22 S 1013,9 30 60 0,0
17.01.2020 13:00:00 7,8 4,1 7,9 6,1 5,0 6,9 27 15 42 23 SSE 1014,5 28 60 0,0
17.01.2020 12:00:00 7,2 3,8 7,2 5,5 4,8 6,9 30 16 44 24 SSE 1015,4 26 60 0,0
17.01.2020 11:00:00 6,5 3,9 6,4 4,8 4,7 6,9 29 16 42 23 SSE 1016,3 26 47 0,0
17.01.2020 10:00:00 6,0 4,0 5,9 4,0 4,6 6,9 26 14 45 24 SSE 1016,9 21 37 0,0
17.01.2020 09:00:00 5,6 3,8 4,7 3,3 4,6 6,9 27 15 45 24 SSE 1017,3 20 0 0,0
17.01.2020 08:00:00 5,5 3,7 4,4 3,2 4,7 6,9 30 16 42 23 SSE 1017,5 23 0 0,0
17.01.2020 07:00:00 5,5 3,8 4,5 3,2 4,7 6,9 28 15 43 23 SSE 1018,0 25 0 0,0
17.01.2020 06:00:00 5,3 3,8 4,2 3,1 4,7 6,9 26 14 38 20 SSE 1018,8 20 0 0,0
17.01.2020 05:00:00 5,2 3,9 4,0 3,1 4,8 6,9 24 13 34 18 SSE 1019,5 16 0 0,0
17.01.2020 04:00:00 5,3 3,9 4,2 3,1 4,8 6,9 24 13 36 19 SSE 1020,3 17 0 0,0
17.01.2020 03:00:00 5,0 3,8 3,9 3,1 4,9 6,9 23 13 33 18 SSE 1021,0 17 0 0,0
17.01.2020 02:00:00 5,0 3,8 3,7 3,1 5,0 6,9 21 11 31 17 SSE 1021,5 20 0 0,0
17.01.2020 01:00:00 5,2 3,8 4,0 3,2 5,1 6,9 22 12 28 15 SSE 1022,0 24 0 0,0
17.01.2020 00:00:00 5,3 3,5 4,1 3,2 5,2 6,9 22 12 34 19 SSE 1022,6 33 0 0,0
16.01.2020 23:00:00 5,3 3,3 4,0 3,3 5,3 6,9 22 12 37 20 SSE 1023,1 41 0 0,0
16.01.2020 22:00:00 5,3 3,4 4,0 3,4 5,4 6,9 23 12 39 21 SSE 1023,7 40 0 0,0
16.01.2020 21:00:00 5,3 3,8 4,0 3,4 5,6 6,9 22 12 32 17 SSE 1024,6 31 0 0,0
16.01.2020 20:00:00 5,1 3,7 3,7 3,5 5,7 6,8 18 10 29 16 S 1025,0 31 0 0,0
16.01.2020 19:00:00 5,6 3,7 4,2 3,8 5,9 6,8 17 9 27 15 S 1025,2 36 0 0,0
16.01.2020 18:00:00 5,9 3,9 4,4 4,2 6,0 6,8 18 10 28 15 S 1025,4 33 0 0,0
16.01.2020 17:00:00 5,9 4,2 4,7 4,7 6,1 6,8 16 9 27 15 S 1025,7 21 0 0,0
16.01.2020 16:00:00 6,8 4,5 5,6 5,5 6,2 6,8 14 8 22 12 S 1025,6 22 0 0,0
16.01.2020 15:00:00 7,6 4,5 6,7 6,2 6,1 6,8 13 7 28 15 S 1025,5 24 58 0,0
16.01.2020 14:00:00 7,5 4,5 7,2 6,6 6,0 6,8 16 9 32 17 SW 1025,6 22 60 0,0
16.01.2020 13:00:00 6,8 4,5 7,2 6,3 5,8 6,8 22 12 34 19 SW 1025,5 14 60 0,0
16.01.2020 12:00:00 6,7 4,6 7,2 5,8 5,8 6,8 20 11 34 18 SW 1025,3 15 60 0,0
16.01.2020 11:00:00 6,4 4,4 6,8 5,2 5,7 6,8 20 11 32 18 SW 1025,3 14 60 0,0
16.01.2020 10:00:00 6,1 4,4 5,9 4,6 5,8 6,8 21 11 29 16 SW 1024,6 14 27 0,0
16.01.2020 09:00:00 6,1 4,4 5,5 4,6 5,8 6,8 21 11 35 19 SW 1023,7 17 0 0,0
16.01.2020 08:00:00 6,5 4,6 5,6 4,6 5,9 6,8 22 12 42 23 SW 1022,5 25 0 0,0
16.01.2020 07:00:00 6,3 4,5 5,0 4,3 6,0 6,8 28 15 40 21 SW 1021,8 26 0 0,0
16.01.2020 06:00:00 6,2 4,5 4,9 4,4 6,1 6,7 23 12 34 19 SW 1021,2 26 0 0,0
16.01.2020 05:00:00 6,4 4,5 5,2 4,9 6,1 6,7 22 12 34 18 SW 1020,3 30 0 0,0
16.01.2020 04:00:00 6,6 4,6 6,1 5,2 6,2 6,7 23 12 41 22 SW 1019,6 33 0 0,0
16.01.2020 03:00:00 6,5 4,6 5,8 4,6 6,3 6,7 27 15 40 22 WSW 1018,8 35 0 0,0
16.01.2020 02:00:00 6,2 4,2 4,7 4,4 6,5 6,7 26 14 41 22 WSW 1017,7 39 0 0,0
16.01.2020 01:00:00 6,3 4,0 4,8 4,6 6,8 6,7 25 13 38 21 WSW 1016,9 47 0 0,0
16.01.2020 00:00:00 6,4 4,2 4,7 5,0 7,0 6,7 26 14 36 20 WSW 1015,9 45 0 0,0
15.01.2020 23:00:00 6,3 4,7 5,0 5,5 7,2 6,7 29 15 37 20 WSW 1014,4 41 0 0,0
15.01.2020 22:00:00 6,6 4,9 5,9 6,3 7,3 6,7 33 18 45 24 W 1013,0 34 0 0,0
15.01.2020 21:00:00 7,5 5,6 7,1 7,1 7,4 6,7 40 21 58 31 W 1011,3 35 0 0,0
15.01.2020 20:00:00 10,0 5,6 9,1 7,4 7,4 6,7 34 18 56 30 WSW 1009,3 46 0 0,0
15.01.2020 19:00:00 10,5 5,0 9,7 7,6 7,5 6,7 28 15 45 24 SW 1008,3 54 0 0,0
15.01.2020 18:00:00 10,8 5,2 9,9 7,8 7,5 6,7 26 14 48 26 SW 1007,5 61 0 0,0
15.01.2020 17:00:00 12,3 5,5 11,2 8,1 7,5 6,7 22 12 44 24 SSW 1007,1 66 0 0,0
15.01.2020 16:00:00 12,2 5,7 11,2 8,3 7,5 6,7 20 11 40 22 SSW 1006,7 61 0 0,0
15.01.2020 15:00:00 11,7 5,7 10,9 8,6 7,4 6,7 25 14 47 26 SW 1006,5 58 1 0,0
15.01.2020 14:00:00 11,5 5,6 11,0 9,1 7,3 6,7 32 17 49 27 SW 1006,5 63 26 0,0
15.01.2020 13:00:00 12,6 6,2 12,3 9,0 7,1 6,7 33 18 60 32 SSW 1006,4 55 8 0,0
15.01.2020 12:00:00 11,8 6,2 11,2 8,4 7,1 6,6 32 18 56 31 SW 1006,3 59 0 0,0
15.01.2020 11:00:00 11,6 6,0 10,9 8,2 7,0 6,6 34 18 51 28 SW 1006,3 60 0 0,0
15.01.2020 10:00:00 11,8 6,2 11,0 8,0 6,9 6,6 32 17 52 28 SSW 1005,7 70 0 0,0
15.01.2020 09:00:00 11,7 6,6 10,7 7,7 6,9 6,6 31 17 57 31 SSW 1005,1 71 0 0,0
15.01.2020 08:00:00 11,5 7,0 10,5 7,8 6,8 6,6 30 16 58 32 SSW 1004,4 69 0 0,0
15.01.2020 07:00:00 11,3 7,1 10,5 7,8 6,8 6,6 31 17 63 34 SSW 1004,4 75 0 0,0
15.01.2020 06:00:00 11,2 6,9 10,4 7,7 6,7 6,6 33 18 56 30 SW 1003,7 53 0 0,0
15.01.2020 05:00:00 11,0 7,4 10,2 7,8 6,6 6,6 31 17 55 30 SSW 1003,5 56 0 0,0
15.01.2020 04:00:00 10,7 7,5 10,0 7,7 6,5 6,6 34 18 59 32 SSW 1003,3 73 0 0,0
15.01.2020 03:00:00 11,6 7,1 10,8 7,7 6,4 6,6 33 18 61 33 SSW 1003,0 69 0 0,0
15.01.2020 02:00:00 11,2 7,0 10,4 7,6 6,3 6,6 37 20 63 34 SW 1002,6 68 0 0,0
15.01.2020 01:00:00 11,3 7,3 10,5 7,4 6,2 6,6 32 18 58 31 SSW 1002,5 53 0 0,0
15.01.2020 00:00:00 10,9 6,9 10,1 7,2 6,1 6,6 27 15 54 29 SSW 1002,4 68 0 0,0
14.01.2020 23:00:00 10,4 6,4 9,7 6,9 6,0 6,6 27 14 50 27 SSW 1002,0 68 0 0,0
14.01.2020 22:00:00 10,1 6,1 9,3 6,7 5,9 6,6 31 17 55 30 S 1002,0 75 0 0,0
14.01.2020 21:00:00 9,6 6,1 8,6 6,6 5,8 6,6 31 17 48 26 S 1002,4 65 0 0,0
14.01.2020 20:00:00 9,0 6,9 8,1 6,4 5,8 6,6 28 15 43 23 S 1003,1 57 0 0,0
14.01.2020 19:00:00 8,7 6,9 7,8 6,3 5,7 6,6 25 13 39 21 S 1003,7 35 0 0,0
14.01.2020 18:00:00 8,6 6,8 7,8 6,1 5,7 6,6 19 11 34 18 S 1004,0 38 0 0,0
14.01.2020 17:00:00 8,4 6,5 7,0 5,6 5,6 6,6 16 8 36 20 SSW 1004,3 49 0 0,0
14.01.2020 16:00:00 8,3 6,8 7,0 6,0 5,6 6,6 13 7 27 15 SSW 1004,1 55 5 0,0
14.01.2020 15:00:00 7,8 6,3 7,1 6,4 5,5 6,6 18 10 32 17 SW 1003,8 50 0 0,0
14.01.2020 14:00:00 7,2 5,4 6,6 6,3 5,3 6,6 21 11 35 19 SW 1003,4 43 2 0,1
14.01.2020 13:00:00 7,4 6,2 6,9 6,2 5,2 6,6 31 17 50 27 WSW 1003,1 19 0 0,3
14.01.2020 12:00:00 8,7 7,0 7,9 6,3 5,0 6,6 26 14 46 25 SSW 1002,1 50 0 0,2
14.01.2020 11:00:00 8,2 6,7 7,4 5,8 4,9 6,6 31 17 50 27 S 1001,6 29 0 0,6
14.01.2020 10:00:00 7,2 6,0 6,5 5,2 4,8 6,6 29 16 46 25 S 1001,5 25 0 0,5
14.01.2020 09:00:00 6,6 5,5 5,9 4,8 4,7 6,6 31 17 53 28 S 1001,5 29 0 0,8
14.01.2020 08:00:00 6,3 4,8 5,5 4,5 4,6 6,6 29 15 49 26 S 1001,7 25 0 0,3
14.01.2020 07:00:00 6,3 3,7 5,6 4,2 4,6 6,6 33 18 49 27 S 1002,4 25 0 0,0
14.01.2020 06:00:00 5,8 3,3 5,3 3,8 4,5 6,6 31 17 59 32 S 1002,8 43 0 0,0
14.01.2020 05:00:00 5,5 3,0 4,8 3,6 4,5 6,6 34 18 51 28 SSE 1003,6 39 0 0,0
14.01.2020 04:00:00 5,3 2,9 4,7 3,5 4,5 6,6 29 16 46 25 S 1005,1 38 0 0,0
14.01.2020 03:00:00 5,4 3,1 5,0 3,7 4,5 6,6 26 14 45 25 S 1006,2 44 0 0,0
14.01.2020 02:00:00 5,1 3,0 4,5 3,4 4,6 6,6 33 18 50 27 SSE 1006,5 43 0 0,0
14.01.2020 01:00:00 5,0 3,1 4,2 3,2 4,6 6,6 27 15 39 21 SSE 1007,8 37 0 0,0
14.01.2020 00:00:00 4,8 3,2 3,8 2,9 4,7 6,6 24 13 38 20 SSE 1009,7 38 0 0,0
13.01.2020 23:00:00 4,6 2,9 3,4 2,9 4,8 6,6 22 12 35 19 S 1010,9 36 0 0,0
13.01.2020 22:00:00 4,8 3,7 3,6 3,0 4,9 6,6 22 12 34 18 S 1011,7 22 0 0,0
13.01.2020 21:00:00 4,4 3,6 3,3 3,0 5,1 6,6 19 11 29 15 SSE 1012,3 9 0 0,0
13.01.2020 20:00:00 4,5 3,5 3,2 3,2 5,3 6,6 18 10 28 15 S 1013,4 11 0 0,0
13.01.2020 19:00:00 5,0 3,7 3,7 3,9 5,4 6,6 14 8 23 12 S 1014,3 11 0 0,0
13.01.2020 18:00:00 5,8 4,2 5,0 4,3 5,5 6,6 16 9 26 14 S 1014,8 15 0 0,0
13.01.2020 17:00:00 5,5 3,8 4,0 4,5 5,6 6,6 12 7 19 10 S 1014,8 18 0 0,0
13.01.2020 16:00:00 6,4 4,3 5,9 5,5 5,5 6,6 12 7 24 13 SSW 1014,9 22 1 0,0
13.01.2020 15:00:00 6,3 4,6 6,1 5,9 5,5 6,6 17 9 31 17 SW 1015,6 16 8 0,0
13.01.2020 14:00:00 6,5 4,5 6,7 6,1 5,3 6,6 21 11 33 18 SW 1016,1 19 19 0,0
13.01.2020 13:00:00 6,5 4,7 6,9 6,2 5,2 6,6 14 8 27 15 SSW 1016,6 17 6 0,0
13.01.2020 12:00:00 6,3 4,4 6,6 5,9 5,0 6,6 13 7 27 15 SSW 1017,3 22 10 0,0
13.01.2020 11:00:00 6,0 4,2 5,9 5,3 4,9 6,6 19 11 30 16 SW 1017,6 25 25 0,0
13.01.2020 10:00:00 5,8 4,3 5,1 4,1 5,0 6,6 18 10 27 15 SW 1017,9 21 0 0,0
13.01.2020 09:00:00 5,3 3,9 3,7 3,5 5,1 6,6 17 9 26 14 SW 1017,6 29 0 0,0
13.01.2020 08:00:00 5,6 4,4 4,3 4,0 5,1 6,6 18 10 30 16 SW 1017,5 26 0 0,0
13.01.2020 07:00:00 5,8 4,6 4,7 3,9 5,2 6,6 20 11 28 15 WSW 1017,3 25 0 0,0
13.01.2020 06:00:00 5,6 4,7 4,0 3,9 5,3 6,6 20 11 29 15 WSW 1017,1 22 0 0,0
13.01.2020 05:00:00 5,8 4,9 4,5 4,5 5,4 6,6 24 13 34 18 WSW 1017,0 26 0 0,0
13.01.2020 04:00:00 6,2 5,2 5,3 4,8 5,4 6,6 27 14 34 18 WSW 1016,8 28 0 0,0
13.01.2020 03:00:00 6,1 5,2 5,4 5,0 5,4 6,6 24 13 32 17 W 1016,6 28 0 0,0
13.01.2020 02:00:00 6,3 5,7 5,6 5,1 5,4 6,6 27 15 35 19 W 1016,1 29 0 0,0
13.01.2020 01:00:00 6,2 5,7 5,5 5,0 5,4 6,6 29 15 33 18 W 1015,5 21 0 0,0
13.01.2020 00:00:00 6,5 5,9 6,0 5,3 5,4 6,6 29 16 37 20 W 1014,6 20 0 0,1
12.01.2020 23:00:00 6,5 5,7 5,9 5,2 5,4 6,6 33 18 42 23 W 1013,5 18 0 0,1
12.01.2020 22:00:00 6,6 6,0 6,1 5,4 5,3 6,6 32 17 44 24 W 1012,5 22 0 0,0
12.01.2020 21:00:00 6,6 6,0 6,2 5,5 5,3 6,6 34 19 50 27 WSW 1011,5 4,8 0 0,1
12.01.2020 20:00:00 6,7 5,9 6,2 5,3 5,2 6,6 34 18 49 26 SW 1010,6 4,7 0 0,2
12.01.2020 19:00:00 6,4 5,6 5,8 5,1 5,2 6,6 25 14 41 22 SSW 1010,6 8 0 0,0
12.01.2020 18:00:00 5,9 5,0 5,4 4,9 5,2 6,6 25 13 41 22 SW 1011,1 26 0 1,0
12.01.2020 17:00:00 5,7 4,5 5,1 4,8 5,2 6,6 27 15 42 23 SW 1011,6 6 0 0,5
12.01.2020 16:00:00 5,4 4,3 4,9 4,9 5,2 6,6 23 13 40 22 SW 1012,3 26 0 0,1
12.01.2020 15:00:00 5,3 4,3 4,9 4,9 5,2 6,6 25 13 41 22 SW 1012,6 20 0 0,8
12.01.2020 14:00:00 5,3 4,1 4,9 4,9 5,2 6,6 27 14 46 25 SW 1013,3 8 0 0,1
12.01.2020 13:00:00 5,5 4,2 5,0 5,0 5,2 6,6 29 16 44 24 SW 1013,8 24 0 0,1
12.01.2020 12:00:00 5,4 4,4 5,1 5,1 5,1 6,6 29 16 47 26 SW 1014,3 12 0 0,1

tt = temperature
td = dewpoint
tt 5cm = temperature 5cm
tt -5cm = temperature -5cm
tt -20cm = temperature -20cm
tt -100cm = temperature -100cm
ff = wind speed
fx = gusts
dd = wind direction
ppp = reduced air pressure
vv = visibility
sd = sunshine duration
rr = precipitation

Next stations